Weather History for Sivas, Turkey

Change the Weather History Date:

Thursday, August 8, 2013

  Actual Average Record
Temperature  
Mean Temperature 64 °F -  
Max Temperature 77 °F 80 °F - ()
Min Temperature 50 °F 50 °F - ()
Degree Days  
Heating Degree Days 2    
Growing Degree Days 14 (Base 50)    
Moisture  
Dew Point 46 °F    
Average Humidity 61    
Maximum Humidity 94    
Minimum Humidity 21    
Precipitation  
Precipitation 0.00 in 0.01 in - ()
Sea Level Pressure  
Sea Level Pressure 30.10 in    
Wind  
Wind Speed 12 mph ()    
Max Wind Speed 23 mph    
Max Gust Speed -    
Visibility 6.6 miles    
Events      
T = Trace of Precipitation, MM = Missing Value Source: Averaged Metar Reports

Daily Weather History Graph

Daily Weather History Graph

Search for Another Location

Airport:

Trip Planner

Search our weather history database for the weather conditions in past years. The results will help you decide how hot, cold, wet, or windy it might be!

Date:

Astronomy

Aug. 08, 2013 Rise Set
Actual Time 5:37 AM EEST 7:37 PM EEST
Civil Twilight 5:08 AM EEST 8:07 PM EEST
Nautical Twilight 4:32 AM EEST 8:43 PM EEST
Astronomical Twilight 3:52 AM EEST 9:22 PM EEST
Moon 7:03 AM EEST (8/8) 8:05 PM EEST (8/8)
Length of Visible Light 14h 59m
Length of Day
14h 00m
New Moon, 2% of the Moon is Illuminated
Aug 8
New Moon
Aug 14
First Quarter
Aug 21
Full
Aug 28
Last Quarter
Sep 5
New

Hourly Weather History & Observations

Time (EEST) Temp. Dew Point Humidity Pressure Visibility Wind Dir Wind Speed Gust Speed Precip Events Conditions
12:50 AM 51.8 °F 44.6 °F 76% 30.09 in - NNE 6.9 mph - N/A   Clear
1:50 AM 50.0 °F 46.4 °F 87% 30.09 in - NW 5.8 mph - N/A   Clear
3:50 AM 51.8 °F 48.2 °F 88% 30.09 in - North 4.6 mph - N/A   Clear
4:50 AM 50.0 °F 48.2 °F 94% 30.09 in - North 11.5 mph - N/A   Clear
5:50 AM 50.0 °F 48.2 °F 94% 30.09 in - North 6.9 mph - N/A   Clear
6:50 AM 51.8 °F 48.2 °F 88% 30.09 in 6.2 mi North 11.5 mph - N/A   Partly Cloudy
7:50 AM 57.2 °F 46.4 °F 67% 30.09 in 6.2 mi NNE 20.7 mph - N/A   Partly Cloudy
8:50 AM 59.0 °F 44.6 °F 59% 30.12 in 6.2 mi NNE 17.3 mph - N/A   Scattered Clouds
9:50 AM 62.6 °F 44.6 °F 52% 30.12 in 6.2 mi NNE 19.6 mph - N/A   Scattered Clouds
10:50 AM 64.4 °F 44.6 °F 49% 30.09 in 6.2 mi NNE 18.4 mph - N/A   Scattered Clouds
11:50 AM 68.0 °F 41.0 °F 37% 30.09 in 6.2 mi NNE 23.0 mph - N/A   Scattered Clouds
12:50 PM 68.0 °F 42.8 °F 40% 30.09 in 6.2 mi North 19.6 mph - N/A   Scattered Clouds
1:50 PM 66.2 °F 46.4 °F 49% 30.09 in 6.2 mi North 20.7 mph - N/A   Scattered Clouds
2:50 PM 68.0 °F 44.6 °F 43% 30.09 in 6.2 mi North 19.6 mph - N/A   Scattered Clouds
3:00 PM 76 °F 44 °F 21%  in 9 mi NNE 4.6 mph - -   Partly Cloudy
3:50 PM 69.8 °F 44.6 °F 40% 30.09 in 6.2 mi North 20.7 mph - N/A   Scattered Clouds
4:50 PM 66.2 °F 48.2 °F 52% 30.09 in 6.2 mi North 23.0 mph - N/A   Scattered Clouds
5:50 PM 64.4 °F 46.4 °F 52% 30.09 in 6.2 mi North 19.6 mph - N/A   Scattered Clouds
6:50 PM 62.6 °F 44.6 °F 52% 30.09 in 6.2 mi North 20.7 mph - N/A   Partly Cloudy
7:50 PM 59.0 °F 46.4 °F 63% 30.12 in - NNE 17.3 mph - N/A   Clear
8:50 PM 57.2 °F 46.4 °F 67% 30.12 in - North 12.7 mph - N/A   Clear
9:00 PM 64 °F 46 °F 41%  in 9 mi North 6.9 mph - -  
9:50 PM 55.4 °F 46.4 °F 72% 30.12 in - North 18.4 mph - N/A   Clear
10:50 PM 55.4 °F 46.4 °F 72% 30.12 in - North 18.4 mph - N/A   Clear
11:50 PM 53.6 °F 46.4 °F 77% 30.12 in - North 12.7 mph - N/A   Clear